Flag for Canada Weather past 2 weeks in Iqaluit, Nunavut Territory, Canada

Now
46 °F

Passing clouds.


Feels Like: 46 °F
Forecast: 46 / 64 °F
Wind: No wind

Location: Iqaluit

Current Time: Aug 2, 2014 at 3:22:03 AM

Latest Report: Aug 2, 2014 at 2:00 AM


Visibility: 15 mi

Pressure: 29.97 "Hg

Humidity: 87%

Dew point: 43 °F

Location of IqaluitLocation

Historic Weather in Iqaluit — Graph

°F

Iqaluit temperature yesterday

Maximum temperature yesterday: 59 °F (at 7:00 PM)
Minimum temperature yesterday: 41 °F (at 4:00 AM)
Average temperature yesterday: 50 °F

Past Weeks' High & Low Weather Summary

 TemperatureHumidityPressure
High66 °F (Jul 30, 12:00 PM)100% (Jul 21, 11:00 AM)30.16 "Hg (Jul 21, 11:00 AM)
Low41 °F (Jul 18, 2:00 AM)46% (Jul 30, 1:00 PM)29.34 "Hg (Jul 22, 11:51 AM)
Average49 °F79%29.84 "Hg
* Reported Jul 18 2:00 AM — Aug 2 2:00 AM, Iqaluit, Weather by CustomWeather, © 2014

Note: Actual official high and low records may vary slightly from our data, if they occured in-between our weather recording intervals... More about our weather records

Advertising

Iqaluit weather history for previous 24 hours

 ConditionsComfort  
Time TempWeatherWind HumidityBarometerVisibility
2:00 AM
Aug 2
46 °FPassing clouds.No wind87%29.97 "Hg15 mi
1:00 AM45 °FPassing clouds.2 mph93%29.97 "Hg15 mi
12:00 AM46 °FPassing clouds.2 mph87%29.97 "Hg15 mi
11:00 PM
Aug 1
48 °FPassing clouds.2 mph87%29.97 "Hg15 mi
10:00 PM50 °FPassing clouds.2 mph82%29.98 "Hg30 mi
9:00 PM54 °FPassing clouds.No wind82%29.98 "Hg30 mi
8:00 PM57 °FSunny.2 mph72%29.99 "Hg30 mi
7:00 PM59 °FSunny.No wind72%30.00 "Hg30 mi
6:00 PM57 °FSunny.2 mph72%30.02 "Hg30 mi
5:00 PM55 °FSunny.3 mph67%30.03 "Hg30 mi
4:00 PM54 °FSunny.5 mph72%30.05 "Hg30 mi
3:00 PM55 °FScattered clouds.6 mph67%30.06 "Hg20 mi
2:00 PM55 °FScattered clouds.6 mph67%30.06 "Hg30 mi
1:00 PM55 °FScattered clouds.5 mph72%30.08 "Hg30 mi
12:00 PM54 °FScattered clouds.3 mph72%30.09 "Hg20 mi
11:00 AM52 °FPartly sunny.3 mph77%30.11 "Hg20 mi
10:00 AM50 °FPartly sunny.3 mph76%30.12 "Hg20 mi
9:00 AM50 °FPartly sunny.3 mph76%30.12 "Hg20 mi
8:00 AM48 °FPartly sunny.3 mph82%30.13 "Hg30 mi
7:00 AM46 °FPartly sunny.No wind82%30.13 "Hg30 mi
6:00 AM46 °FPartly sunny.No wind82%30.14 "Hg30 mi
5:00 AM45 °FPartly sunny.2 mph81%30.14 "Hg30 mi
4:00 AM41 °FScattered clouds.2 mph93%30.14 "Hg30 mi
3:00 AM45 °FScattered clouds.3 mph81%30.15 "Hg20 mi
Weather by CustomWeather, © 2014

See weather overviewHow to use our weather pages